Olivia Sylvie — FMIF — position and weather

sailwx.info

Track history (hours):
 
Tides and Currents Weather Stations Pressure Air Temp Water Temp Dewpoint Dewpoint Depression Visibility Wind Speed Wind Dir Waves Ship Positions

Olivia Sylvie

Last reported at 2014-Jul-29 04:32 UTC. Time now 2014-Jul-29 04:38 UTC.
Position N 43°18' E 004°55'.

Length 23 m.

Type: Fishing. MMSI: 228236800.

Date/timePositionNaut miles runAvg speedWind from/ knotsBaromVisibWave heightAir tempDewpointWater temp
2014-Jul-29 04:32N 43°18' E 004°55'7 6.9
2014-Jul-29 03:33N 43°24' E 004°60'0 0.0
2014-Jul-29 02:33N 43°24' E 004°60'0 0.0
2014-Jul-28 05:03N 43°24' E 004°60'0 0.0
2014-Jul-28 04:33N 43°24' E 004°60'0 0.0
2014-Jul-28 03:33N 43°24' E 004°60'0 0.0
2014-Jul-28 02:33N 43°24' E 004°60'  
2014-Jul-25 15:33N 43°24' E 004°60'0 0.0
2014-Jul-25 14:33N 43°24' E 004°60'2 1.9
2014-Jul-25 13:33N 43°22' E 004°59'6 6.3
2014-Jul-25 12:33N 43°16' E 004°58'4 3.5
2014-Jul-25 11:33N 43°16' E 004°53'7 3.6
2014-Jul-25 09:31N 43°12' E 004°44'4 3.9
2014-Jul-25 08:26N 43°08' E 004°42'1 1.4
2014-Jul-25 07:33N 43°07' E 004°42'4 3.7
2014-Jul-25 06:24N 43°11' E 004°44'7 3.7
2014-Jul-25 04:33N 43°16' E 004°51'4 3.7
2014-Jul-25 03:33N 43°17' E 004°55'7 7.5
2014-Jul-25 02:33N 43°24' E 004°60'0 0.0
2014-Jul-24 16:26N 43°24' E 004°60'0 0.0
2014-Jul-24 15:33N 43°24' E 004°60'0 0.0
2014-Jul-24 14:33N 43°24' E 004°60'3 2.7
2014-Jul-24 13:33N 43°22' E 004°58'6 5.5
2014-Jul-24 12:33N 43°17' E 004°55'4 3.9
2014-Jul-24 11:33N 43°15' E 004°50'4 4.0
2014-Jul-24 10:30N 43°13' E 004°45'4 3.7
2014-Jul-24 09:21N 43°09' E 004°43'4 3.7
2014-Jul-24 08:19N 43°06' E 004°40'1 1.1
2014-Jul-24 07:33N 43°06' E 004°41'4 3.9
2014-Jul-24 06:33N 43°10' E 004°44'4 4.1
2014-Jul-24 05:28N 43°14' E 004°47'3 3.6
2014-Jul-24 04:32N 43°15' E 004°51'4 3.8
2014-Jul-24 03:33N 43°17' E 004°55'7 7.1
2014-Jul-24 02:33N 43°24' E 004°59'1 0.8
2014-Jul-24 01:33N 43°24' E 004°60'0 0.0
2014-Jul-23 16:09N 43°24' E 004°60'0 0.0
2014-Jul-23 15:33N 43°24' E 004°60'0 0.0
2014-Jul-23 14:33N 43°24' E 004°60'5 4.9
2014-Jul-23 13:33N 43°20' E 004°58'4 4.2
2014-Jul-23 12:33N 43°16' E 004°56'4 3.9
2014-Jul-23 11:33N 43°14' E 004°51'7 2.2
2014-Jul-23 08:33N 43°11' E 004°59'3 2.7
2014-Jul-23 07:23N 43°11' E 004°55'6 2.7
2014-Jul-23 05:16N 43°15' E 004°49'3 3.9
2014-Jul-23 04:33N 43°16' E 004°52'4 3.6
2014-Jul-23 03:33N 43°18' E 004°57'6 6.4
2014-Jul-23 02:33N 43°24' E 004°60'0 0.0
2014-Jul-22 13:21N 43°24' E 004°60'0 0.0
2014-Jul-22 12:34N 43°24' E 004°60'0 0.0
2014-Jul-21 09:33N 43°24' E 004°60'0 0.4
2014-Jul-21 08:33N 43°24' E 004°59'3 2.8
2014-Jul-21 07:33N 43°22' E 004°57'4 4.3
2014-Jul-21 06:33N 43°19' E 004°53'4 3.8
2014-Jul-21 05:31N 43°18' E 004°47'1 1.2
2014-Jul-21 04:33N 43°19' E 004°49'4 3.7
2014-Jul-21 03:33N 43°19' E 004°54'7 6.7
2014-Jul-21 02:33N 43°24' E 004°60'  
Track history (hours):
 
Tides and Currents Weather Stations Pressure Air Temp Water Temp Dewpoint Dewpoint Depression Visibility Wind Speed Wind Dir Waves Ship Positions

Olivia Sylvie

Last reported at 2014-Jul-29 04:32 UTC. Time now 2014-Jul-29 04:38 UTC.
Position N 43°18' E 004°55'.

Length 23 m.

Type: Fishing. MMSI: 228236800.

Date/timePositionNaut miles runAvg speedWind from/ knotsBaromVisibWave heightAir tempDewpointWater temp
2014-Jul-29 04:32N 43°18' E 004°55'7 6.9
2014-Jul-29 03:33N 43°24' E 004°60'0 0.0
2014-Jul-29 02:33N 43°24' E 004°60'0 0.0
2014-Jul-28 05:03N 43°24' E 004°60'0 0.0
2014-Jul-28 04:33N 43°24' E 004°60'0 0.0
2014-Jul-28 03:33N 43°24' E 004°60'0 0.0
2014-Jul-28 02:33N 43°24' E 004°60'  
2014-Jul-25 15:33N 43°24' E 004°60'0 0.0
2014-Jul-25 14:33N 43°24' E 004°60'2 1.9
2014-Jul-25 13:33N 43°22' E 004°59'6 6.3
2014-Jul-25 12:33N 43°16' E 004°58'4 3.5
2014-Jul-25 11:33N 43°16' E 004°53'7 3.6
2014-Jul-25 09:31N 43°12' E 004°44'4 3.9
2014-Jul-25 08:26N 43°08' E 004°42'1 1.4
2014-Jul-25 07:33N 43°07' E 004°42'4 3.7
2014-Jul-25 06:24N 43°11' E 004°44'7 3.7
2014-Jul-25 04:33N 43°16' E 004°51'4 3.7
2014-Jul-25 03:33N 43°17' E 004°55'7 7.5
2014-Jul-25 02:33N 43°24' E 004°60'0 0.0
2014-Jul-24 16:26N 43°24' E 004°60'0 0.0
2014-Jul-24 15:33N 43°24' E 004°60'0 0.0
2014-Jul-24 14:33N 43°24' E 004°60'3 2.7
2014-Jul-24 13:33N 43°22' E 004°58'6 5.5
2014-Jul-24 12:33N 43°17' E 004°55'4 3.9
2014-Jul-24 11:33N 43°15' E 004°50'4 4.0
2014-Jul-24 10:30N 43°13' E 004°45'4 3.7
2014-Jul-24 09:21N 43°09' E 004°43'4 3.7
2014-Jul-24 08:19N 43°06' E 004°40'1 1.1
2014-Jul-24 07:33N 43°06' E 004°41'4 3.9
2014-Jul-24 06:33N 43°10' E 004°44'4 4.1
2014-Jul-24 05:28N 43°14' E 004°47'3 3.6
2014-Jul-24 04:32N 43°15' E 004°51'4 3.8
2014-Jul-24 03:33N 43°17' E 004°55'7 7.1
2014-Jul-24 02:33N 43°24' E 004°59'1 0.8
2014-Jul-24 01:33N 43°24' E 004°60'0 0.0
2014-Jul-23 16:09N 43°24' E 004°60'0 0.0
2014-Jul-23 15:33N 43°24' E 004°60'0 0.0
2014-Jul-23 14:33N 43°24' E 004°60'5 4.9
2014-Jul-23 13:33N 43°20' E 004°58'4 4.2
2014-Jul-23 12:33N 43°16' E 004°56'4 3.9
2014-Jul-23 11:33N 43°14' E 004°51'7 2.2
2014-Jul-23 08:33N 43°11' E 004°59'3 2.7
2014-Jul-23 07:23N 43°11' E 004°55'6 2.7
2014-Jul-23 05:16N 43°15' E 004°49'3 3.9
2014-Jul-23 04:33N 43°16' E 004°52'4 3.6
2014-Jul-23 03:33N 43°18' E 004°57'6 6.4
2014-Jul-23 02:33N 43°24' E 004°60'0 0.0
2014-Jul-22 13:21N 43°24' E 004°60'0 0.0
2014-Jul-22 12:34N 43°24' E 004°60'0 0.0
2014-Jul-21 09:33N 43°24' E 004°60'0 0.4
2014-Jul-21 08:33N 43°24' E 004°59'3 2.8
2014-Jul-21 07:33N 43°22' E 004°57'4 4.3
2014-Jul-21 06:33N 43°19' E 004°53'4 3.8
2014-Jul-21 05:31N 43°18' E 004°47'1 1.2
2014-Jul-21 04:33N 43°19' E 004°49'4 3.7
2014-Jul-21 03:33N 43°19' E 004°54'7 6.7
2014-Jul-21 02:33N 43°24' E 004°60'  

Dump ship's entire track history